TimeCDT,TemperatureF,Dew PointF,Humidity,Sea Level PressureIn,VisibilityMPH,Wind Direction,Wind SpeedMPH,Gust SpeedMPH,PrecipitationIn,Events,Conditions,WindDirDegrees,DateUTC
12:15 AM,28.0,24.6,87,30.23,10.0,Calm,Calm,-,N/A,,Clear,0,2013-04-26 05:15:00
12:35 AM,26.6,22.8,86,30.23,10.0,Calm,Calm,-,N/A,,Clear,0,2013-04-26 05:35:00
12:55 AM,26.8,22.5,84,30.22,10.0,Calm,Calm,-,N/A,,Clear,0,2013-04-26 05:55:00
1:15 AM,30.0,24.6,80,30.21,10.0,Calm,Calm,-,N/A,,Clear,0,2013-04-26 06:15:00
1:35 AM,27.3,23.5,86,30.21,10.0,Calm,Calm,-,N/A,,Clear,0,2013-04-26 06:35:00
1:55 AM,28.0,23.9,84,30.20,10.0,Calm,Calm,-,N/A,,Clear,0,2013-04-26 06:55:00
2:15 AM,28.6,24.4,84,30.20,10.0,Calm,Calm,-,N/A,,Clear,0,2013-04-26 07:15:00
2:35 AM,29.5,25.2,84,30.19,10.0,Calm,Calm,-,N/A,,Scattered Clouds,0,2013-04-26 07:35:00
2:55 AM,32.0,25.5,77,30.21,10.0,Calm,Calm,-,N/A,,Mostly Cloudy,0,2013-04-26 07:55:00
3:15 AM,31.1,27.5,87,30.21,10.0,Calm,Calm,-,N/A,,Overcast,0,2013-04-26 08:15:00
3:35 AM,31.6,27.9,86,30.21,10.0,Calm,Calm,-,N/A,,Overcast,0,2013-04-26 08:35:00
3:55 AM,32.9,27.7,81,30.21,10.0,Calm,Calm,-,N/A,,Overcast,0,2013-04-26 08:55:00
4:15 AM,34.9,27.0,73,30.20,10.0,SE,5.8,-,N/A,,Overcast,140,2013-04-26 09:15:00
4:35 AM,36.7,26.1,65,30.21,10.0,Calm,Calm,-,N/A,,Overcast,0,2013-04-26 09:35:00
4:55 AM,37.0,26.2,65,30.20,10.0,Calm,Calm,-,N/A,,Light Drizzle,0,2013-04-26 09:55:00
5:15 AM,37.9,26.1,62,30.20,10.0,SSE,4.6,-,N/A,,Overcast,150,2013-04-26 10:15:00
5:35 AM,37.9,26.2,63,30.19,10.0,SSE,5.8,-,N/A,Rain,Light Rain,150,2013-04-26 10:35:00
5:55 AM,38.5,26.4,62,30.19,10.0,SSE,8.1,-,N/A,Rain,Rain,150,2013-04-26 10:55:00
6:15 AM,36.5,30.2,78,30.17,7.0,SE,10.4,-,0.01,Rain,Rain,140,2013-04-26 11:15:00
6:35 AM,36.5,29.5,76,30.17,10.0,South,10.4,16.1,0.01,Rain,Light Rain,170,2013-04-26 11:35:00
6:55 AM,37.6,29.5,73,30.20,10.0,SSW,3.5,-,0.01,,Overcast,200,2013-04-26 11:55:00
7:15 AM,38.3,29.3,70,30.22,10.0,South,5.8,-,N/A,Rain,Light Rain,180,2013-04-26 12:15:00
7:35 AM,36.7,31.3,81,30.21,5.0,SE,10.4,-,0.02,Rain,Rain,140,2013-04-26 12:35:00
7:55 AM,37.0,31.8,81,30.19,10.0,SSE,10.4,-,0.02,Rain,Light Rain,160,2013-04-26 12:55:00
8:15 AM,38.1,32.0,79,30.20,10.0,SSE,5.8,-,N/A,,Overcast,150,2013-04-26 13:15:00
8:35 AM,39.6,32.0,74,30.21,10.0,Calm,Calm,-,N/A,,Mostly Cloudy,0,2013-04-26 13:35:00
8:55 AM,40.5,32.4,73,30.18,10.0,SE,6.9,-,N/A,,Scattered Clouds,130,2013-04-26 13:55:00
9:15 AM,41.2,32.4,71,30.17,10.0,SE,6.9,-,N/A,,Clear,130,2013-04-26 14:15:00
9:35 AM,43.7,33.8,68,30.16,10.0,SSE,8.1,-,N/A,,Clear,150,2013-04-26 14:35:00
9:55 AM,45.5,32.2,60,30.14,10.0,SSE,6.9,-,N/A,,Mostly Cloudy,160,2013-04-26 14:55:00
10:15 AM,47.1,32.0,56,30.14,10.0,SSE,11.5,16.1,N/A,,Mostly Cloudy,160,2013-04-26 15:15:00
10:35 AM,50.7,33.3,51,30.14,10.0,South,9.2,-,N/A,,Mostly Cloudy,180,2013-04-26 15:35:00
10:55 AM,52.0,33.3,49,30.13,10.0,South,10.4,-,N/A,,Scattered Clouds,180,2013-04-26 15:55:00
11:15 AM,54.9,33.8,45,30.13,10.0,South,13.8,18.4,N/A,,Mostly Cloudy,190,2013-04-26 16:15:00
11:35 AM,58.1,35.1,42,30.12,10.0,South,15.0,21.9,N/A,,Scattered Clouds,190,2013-04-26 16:35:00
11:55 AM,58.6,34.7,41,30.12,10.0,SSW,13.8,17.3,N/A,,Scattered Clouds,200,2013-04-26 16:55:00
12:15 PM,60.4,34.2,37,30.10,10.0,South,15.0,20.7,N/A,,Scattered Clouds,190,2013-04-26 17:15:00
12:35 PM,63.3,33.8,33,30.09,10.0,SSW,18.4,26.5,N/A,,Clear,210,2013-04-26 17:35:00
12:55 PM,64.2,33.8,32,30.09,10.0,SW,17.3,23.0,N/A,,Scattered Clouds,220,2013-04-26 17:55:00
1:15 PM,63.1,33.4,33,30.09,10.0,SSW,18.4,24.2,N/A,,Mostly Cloudy,210,2013-04-26 18:15:00
1:35 PM,64.4,34.3,33,30.08,10.0,SSW,15.0,23.0,N/A,,Overcast,210,2013-04-26 18:35:00
1:55 PM,65.1,35.1,33,30.07,10.0,SSW,17.3,26.5,N/A,,Mostly Cloudy,200,2013-04-26 18:55:00
2:15 PM,66.4,35.2,32,30.07,10.0,SSW,23.0,28.8,N/A,,Scattered Clouds,210,2013-04-26 19:15:00
2:35 PM,66.6,34.9,31,30.07,10.0,SW,15.0,29.9,N/A,,Clear,220,2013-04-26 19:35:00
2:55 PM,67.8,35.6,30,30.07,10.0,WSW,12.7,27.6,N/A,,Scattered Clouds,240,2013-04-26 19:55:00
3:15 PM,67.5,35.6,31,30.06,10.0,SW,17.3,24.2,N/A,,Scattered Clouds,220,2013-04-26 20:15:00
3:35 PM,68.0,36.0,31,30.06,10.0,SW,18.4,24.2,N/A,,Mostly Cloudy,220,2013-04-26 20:35:00
3:55 PM,67.1,36.1,32,30.06,10.0,SW,11.5,20.7,N/A,,Mostly Cloudy,230,2013-04-26 20:55:00
4:15 PM,66.9,36.5,33,30.06,10.0,WSW,13.8,26.5,N/A,,Mostly Cloudy,240,2013-04-26 21:15:00
4:35 PM,66.2,37.0,34,30.06,10.0,SSW,15.0,18.4,N/A,,Mostly Cloudy,210,2013-04-26 21:35:00
4:55 PM,67.1,37.4,34,30.06,10.0,SW,19.6,28.8,N/A,,Mostly Cloudy,230,2013-04-26 21:55:00
5:15 PM,67.3,37.8,34,30.06,10.0,SW,19.6,25.3,N/A,,Scattered Clouds,230,2013-04-26 22:15:00
5:35 PM,67.8,38.3,34,30.06,10.0,SW,12.7,20.7,N/A,,Clear,220,2013-04-26 22:35:00
5:55 PM,67.5,38.7,35,30.06,10.0,SW,18.4,24.2,N/A,,Scattered Clouds,220,2013-04-26 22:55:00
6:15 PM,67.1,39.2,36,30.06,10.0,SW,10.4,18.4,N/A,,Clear,220,2013-04-26 23:15:00
6:35 PM,67.1,39.6,36,30.06,10.0,SW,16.1,20.7,N/A,,Scattered Clouds,230,2013-04-26 23:35:00
6:55 PM,66.4,39.9,38,30.07,10.0,SW,12.7,18.4,N/A,,Scattered Clouds,230,2013-04-26 23:55:00
7:15 PM,64.9,39.4,39,30.07,10.0,SW,10.4,19.6,N/A,,Clear,230,2013-04-27 00:15:00
7:35 PM,63.7,39.7,41,30.08,10.0,SW,9.2,-,N/A,,Scattered Clouds,220,2013-04-27 00:35:00
7:55 PM,63.0,40.3,43,30.09,10.0,SW,9.2,-,N/A,,Clear,220,2013-04-27 00:55:00
8:15 PM,61.7,41.0,47,30.10,10.0,SW,8.1,-,N/A,,Scattered Clouds,220,2013-04-27 01:15:00
8:35 PM,60.4,41.5,50,30.10,10.0,SSW,9.2,-,N/A,,Mostly Cloudy,210,2013-04-27 01:35:00
8:55 PM,59.7,41.9,52,30.11,10.0,SSW,9.2,-,N/A,,Mostly Cloudy,200,2013-04-27 01:55:00
9:15 PM,60.4,42.8,52,30.12,10.0,SSW,12.7,17.3,N/A,,Mostly Cloudy,210,2013-04-27 02:15:00
9:35 PM,59.9,42.8,53,30.13,10.0,SW,10.4,17.3,N/A,,Mostly Cloudy,220,2013-04-27 02:35:00
9:55 PM,56.8,42.4,59,30.14,10.0,SSW,6.9,-,N/A,,Scattered Clouds,200,2013-04-27 02:55:00
10:15 PM,57.4,42.8,58,30.14,10.0,SSW,10.4,-,N/A,,Mostly Cloudy,200,2013-04-27 03:15:00
10:35 PM,57.9,43.2,58,30.15,10.0,SW,9.2,-,N/A,,Overcast,230,2013-04-27 03:35:00
10:55 PM,58.1,43.3,58,30.15,10.0,SSW,8.1,-,N/A,,Overcast,210,2013-04-27 03:55:00
11:15 PM,57.2,43.2,59,30.16,10.0,SW,6.9,-,N/A,,Overcast,230,2013-04-27 04:15:00
11:35 PM,57.2,43.0,59,30.16,10.0,SSW,11.5,-,N/A,,Overcast,210,2013-04-27 04:35:00
11:55 PM,54.5,44.4,69,30.16,10.0,SSW,12.7,-,N/A,Rain,Light Rain,210,2013-04-27 04:55:00